Погода Агзу

Погода Агзу : погода сейчас, прогноз погоды и архив. Всё, что Вы хотите узнать о погоде Агзу!

Хотите узнать прогноз погоды Агзу? Тогда Вам сюда: Погода Агзу

Поиск расширенной информации на нашем сайте:

Другие новости

Новости СМИ2

Главная страница сайта

Новости сайта

03.07.2017

Напоминаем, что на нашем специализированном сайте Метеоцентр.Азия вы можете получить высокодетализированные автоматические прогнозы погоды по пунктам России, СНГ и мира в авиационном формате (включающие направление и скорость ветра, видимость, явления погоды, количество и форму облачности, нижнюю и верхнюю границу облачности).


Погода Агзу - сегодня

Время (UTC), дата Ветер
(°,м/с) 
Видим.   Явления Облачность Т
(°С)
Тd
(°С)
f(%) Тe
(°С)
Pmin
(гПа)
dP
(гПа)
Po
(мм)
O2
(г/м3)
Тmin Tmax R s Состояние
почвы
18 19.02.18 тихо ()   н/о    н/о 
-25.8 -28 82 -26  1013.7  -0.7  743  332           
00 20.02.18 тихо ()   н/о    н/о 
-21.4 -25.6 69 -21  1013.3  0.2  743  327  -30.5         
03 20.02.18 300 (СЗ) 20000 м    10/8 600 м кучево-дожд., верхняя 
[Cb cap|Ci fib]
-11.3 -24 34 -13  1010.1  -2.3  741  313           
06 20.02.18 300 (СЗ) 1{10}  н/о    н/о 
-12.3 -24.3 36 -12  1009.9  -0.3  741  314           
12 20.02.18 тихо ()   н/о    н/о 
-18.4 -24.7 58 -18  1014.6  2.1  744  323           
15 20.02.18 тихо ()   20000 м    3/0 верхняя 
[Ci sp]
-21.6 -26.2 66 -22  1015.3  0.4  744  327           
18 20.02.18 тихо ()   н/о    н/о 
-25.6 -28.6 76 -26  1015.6  -0.2  744  333           
00 21.02.18 190 (Ю) н/о    н/о 
-21.4 -26.7 62 -22  1016.3  0.6  745  328  -30.1         
03 21.02.18 290 (З) 20000 м    8/5 1000 м верхняя 
[Cu hum|Ci sp]
-11.9 -25.8 30 -15  1013.4  -2  744  315           
06 21.02.18 300 (СЗ) н/о    н/о 
-10.9 -25.7 28 -11  1012.5  -0.8  743  313           
12 21.02.18 тихо ()   н/о    н/о 
-23.8 -27.8 70 -24  1017.5  746  331           
15 21.02.18 тихо ()   20000 м    ясно 
-28.1 -30.8 78 -28  1018.8  0.9  747  337           
18 21.02.18 тихо ()   н/о    н/о 
-31 -34 75 -31  1020.2  747  342           
00 22.02.18 тихо ()   н/о    н/о 
-25.1 -29 70 -25  1020.9  0.5  748  334           
03 22.02.18 180 (Ю) 20000 м    10/1 1000 м верхняя 
[Cu hum|Cs]
-15 -25.5 40 -15  1017.4  -2.5  746  320           
06 22.02.18 тихо ()   н/о    н/о 
-10.4 -24.1 32 -10  1015  -2  745  314           
09 22.02.18 040 (СВ) 20000 м    4/0 верхняя 
[Ci fib]
-15.1 -22 56 -17  1016.7  1.3  746  320    -10.3       
12 22.02.18 тихо ()   н/о    н/о 
-21.9 -25.3 74 -22  1019.3  1.3  747  329           
15 22.02.18 тихо ()   20000 м    6/0 верхняя 
[Cs]
-23.8 -26.6 78 -24  1020.4  0.8  748  332           
18 22.02.18 тихо ()   н/о    н/о 
-27 -29.6 78 -27  1021.1  0.5  748  336           
00 23.02.18 тихо ()   н/о    н/о 
-24.4 -27.8 73 -24  1023.2  1.4  750  334  -30.5         
03 23.02.18 210 (ЮЗ) 20000 м    10/5 1000 м верхняя 
[Sc|Cs]
-14.1 -21 56 -14  1020.1  -2.1  748  320           
06 23.02.18 тихо ()   н/о    н/о 
-9.8 -18.6 49 -10  1017  -2.6  746  313           
12 23.02.18 тихо ()   н/о    н/о 
-11.9 -14.8 79 -12  1018.1  0.7  747  316           
15 23.02.18 320 (СЗ) 20000 м    10/10 1000 м 
[Sc]
-10.3 -17.6 55 -10  1018.3  0.4  747  314           
Время (UTC), дата Ветер
(°,м/с) 
Видим.   Явления Облачность Т
(°С)
Тd
(°С)
f(%) Тe
(°С)
Pmin
(гПа)
dP
(гПа)
Po
(мм)
O2
(г/м3)
Тmin Tmax R s Состояние
почвы

Для получения пояснительной информации подведите курсор к названию столбца.

ПОГОДА Агзу - архив

Всё, что Вы хотите узнать о погоде Агзу - удобно и подробно!

Выберите нужную дату (начиная с 1 января 2015* года) и нажмите кнопку "Найти".
Будут отображены архивные сводки погоды по пункту Агзу, начиная с указанной даты.


Отображать данные в формате CSV (для использования в таблицах Excel)


Внимание! Наш архив погоды предназначен исключительно для личного некоммерческого использования в познавательных целях. Если Вам необходимы официальные справки о состоянии погоды (для производственных, юридических, коммерческих и т.п. целей), обращайтесь в органы Росгидромета.

*Примечание: данная дата относится к архиву по метеостанциям СССР (Россия, СНГ, Балтия).
Архив по метеостанциям Зарубежной Европы и Азии (кроме Китая) хранится 10 дней, по другим регионам земного шара (Китай, Африка, Америка, Австралия, Океания) - 1 день.

Агзу - район местоположения метеостанции


Название, широта, долгота, высота метеостанции:
Агзу 47.6°ш. 138.4°д. 165 м над ур. моря [Российская Федерация]

Дополнительная информация

В oтличие oт бoльшинства пoгoдных сайтoв мы публикуем пoдрoбную метеoинфoрмацию в детальнoм прoфессиoнальнoм фoрмате.

Характеристики температуры и влажнoсти вoздуха измеряются на высoте 2 м в тени вдали oт зданий и деревьев.
Скoрoсть ветра измеряется на высoте 10 м (на урoвне рoста челoвека скoрoсть ветра ниже в 1.5-2 раза). Если метеoстанция нахoдится в гoрoде или в лесу, тo скoрoсть ветра занижена на 2-4 м/с пo сравнению с oткрытым местoм. Скoрoсть ветра над акватoриями крупных рек и oзёр, а также на вершинах хoлмoв на 2-5 м/с выше, чем в oбычных услoвиях.
Атмoсфернoе давление в разных тoчках местнoсти мoжет значительнo oтличаться oт давления на метеoстанции, в зависимoсти oт услoвий рельефа (при пoдъёме на 10 м давление пoнижается примернo на 1 мм рт.ст.).